TimeEDT,TemperatureF,Dew PointF,Humidity,Sea Level PressureIn,VisibilityMPH,Wind Direction,Wind SpeedMPH,Gust SpeedMPH,PrecipitationIn,Events,Conditions,WindDirDegrees,DateUTC
12:15 AM,79.0,77.0,94,30.06,10.0,SE,4.6,-,N/A,,Overcast,130,2013-07-27 04:15:00
12:35 AM,78.6,77.0,95,30.06,5.0,SSE,4.6,-,N/A,Rain,Rain,150,2013-07-27 04:35:00
12:55 AM,78.1,76.8,96,30.05,10.0,South,6.9,-,N/A,,Overcast,170,2013-07-27 04:55:00
1:15 AM,77.9,76.1,94,30.04,10.0,SSE,6.9,-,N/A,Thunderstorm,Overcast,160,2013-07-27 05:15:00
1:35 AM,77.5,76.1,95,30.03,10.0,SE,6.9,-,N/A,,Overcast,130,2013-07-27 05:35:00
1:55 AM,77.4,75.2,93,30.02,10.0,ESE,4.6,-,N/A,,Overcast,120,2013-07-27 05:55:00
2:15 AM,77.2,75.2,94,30.01,10.0,East,4.6,-,N/A,,Overcast,100,2013-07-27 06:15:00
2:35 AM,77.2,75.2,94,30.00,10.0,ESE,3.5,-,N/A,,Overcast,110,2013-07-27 06:35:00
2:55 AM,77.4,75.4,94,30.00,10.0,Calm,Calm,-,N/A,,Overcast,0,2013-07-27 06:55:00
3:15 AM,76.5,75.6,97,30.00,7.0,Calm,Calm,-,N/A,,Overcast,0,2013-07-27 07:15:00
3:35 AM,76.6,76.1,98,29.99,7.0,Calm,Calm,-,N/A,,Overcast,0,2013-07-27 07:35:00
3:55 AM,76.6,76.1,98,29.99,5.0,Calm,Calm,-,N/A,,Overcast,0,2013-07-27 07:55:00
4:15 AM,76.5,76.1,99,29.99,5.0,Calm,Calm,-,N/A,,Overcast,0,2013-07-27 08:15:00
4:35 AM,76.3,76.1,99,29.99,4.0,Calm,Calm,-,N/A,,Mostly Cloudy,0,2013-07-27 08:35:00
4:55 AM,76.1,76.1,100,29.99,3.0,Calm,Calm,-,N/A,,Mostly Cloudy,0,2013-07-27 08:55:00
5:15 AM,75.9,75.9,100,30.00,2.5,Calm,Calm,-,N/A,,Overcast,0,2013-07-27 09:15:00
5:35 AM,76.3,76.3,100,30.00,3.0,Calm,Calm,-,N/A,,Overcast,0,2013-07-27 09:35:00
5:55 AM,76.3,76.3,100,30.00,3.0,Calm,Calm,-,N/A,,Overcast,0,2013-07-27 09:55:00
6:15 AM,76.5,76.5,100,29.99,3.0,Calm,Calm,-,N/A,,Overcast,0,2013-07-27 10:15:00
6:35 AM,76.6,76.6,100,29.99,3.0,Calm,Calm,-,N/A,,Overcast,0,2013-07-27 10:35:00
6:55 AM,77.4,77.4,100,30.00,3.0,Calm,Calm,-,N/A,,Overcast,0,2013-07-27 10:55:00
7:15 AM,77.7,77.5,99,30.01,2.5,Calm,Calm,-,N/A,,Mostly Cloudy,0,2013-07-27 11:15:00
7:35 AM,78.3,78.3,100,30.01,2.5,Calm,Calm,-,N/A,,Scattered Clouds,0,2013-07-27 11:35:00
7:55 AM,78.8,78.6,99,30.02,2.5,SE,3.5,-,N/A,,Mostly Cloudy,130,2013-07-27 11:55:00
8:15 AM,79.0,78.4,98,30.02,2.5,SE,4.6,-,N/A,,Mostly Cloudy,140,2013-07-27 12:15:00
8:35 AM,79.2,78.6,98,30.02,3.0,Calm,Calm,-,N/A,,Overcast,0,2013-07-27 12:35:00
8:55 AM,79.9,79.0,97,30.02,4.0,Calm,Calm,-,N/A,,Overcast,0,2013-07-27 12:55:00
9:15 AM,79.9,78.8,96,30.03,5.0,Calm,Calm,-,N/A,,Overcast,0,2013-07-27 13:15:00
9:35 AM,80.4,79.0,95,30.03,5.0,SSW,3.5,-,N/A,,Overcast,210,2013-07-27 13:35:00
9:55 AM,81.0,78.8,93,30.03,7.0,South,3.5,-,N/A,,Overcast,190,2013-07-27 13:55:00
10:15 AM,82.4,79.2,90,30.02,7.0,SW,3.5,-,N/A,,Overcast,220,2013-07-27 14:15:00
10:35 AM,82.4,78.8,89,30.02,10.0,SW,3.5,-,N/A,,Overcast,220,2013-07-27 14:35:00
10:55 AM,82.8,78.4,87,30.03,10.0,Calm,Calm,-,N/A,,Overcast,0,2013-07-27 14:55:00
11:15 AM,83.8,78.6,84,30.03,10.0,Calm,Calm,-,N/A,,Overcast,0,2013-07-27 15:15:00
11:35 AM,84.0,78.3,83,30.02,10.0,SSW,3.5,-,N/A,,Overcast,210,2013-07-27 15:35:00
11:55 AM,85.5,77.9,78,30.02,10.0,Calm,Calm,-,N/A,,Mostly Cloudy,0,2013-07-27 15:55:00
12:15 PM,86.0,78.4,78,30.01,10.0,SSW,3.5,-,N/A,,Mostly Cloudy,200,2013-07-27 16:15:00
12:35 PM,86.7,78.1,75,30.01,10.0,Calm,Calm,-,N/A,,Mostly Cloudy,0,2013-07-27 16:35:00
12:55 PM,87.3,78.8,76,30.00,10.0,WSW,3.5,-,N/A,,Scattered Clouds,240,2013-07-27 16:55:00
1:15 PM,88.7,78.4,72,29.99,10.0,NNW,3.5,-,N/A,,Mostly Cloudy,340,2013-07-27 17:15:00
1:35 PM,88.9,76.5,67,29.99,10.0,NW,3.5,-,N/A,,Scattered Clouds,320,2013-07-27 17:35:00
1:55 PM,90.3,74.1,59,29.98,10.0,WSW,3.5,-,N/A,,Scattered Clouds,240,2013-07-27 17:55:00
2:15 PM,89.6,75.7,64,29.97,10.0,WNW,3.5,-,N/A,,Scattered Clouds,300,2013-07-27 18:15:00
2:35 PM,89.6,74.3,61,29.97,10.0,West,5.8,-,N/A,,Scattered Clouds,270,2013-07-27 18:35:00
2:55 PM,87.4,75.2,67,29.97,10.0,NW,3.5,-,N/A,,Scattered Clouds,310,2013-07-27 18:55:00
3:15 PM,87.8,75.6,67,29.96,10.0,West,3.5,-,N/A,,Scattered Clouds,280,2013-07-27 19:15:00
3:35 PM,87.6,75.7,68,29.96,10.0,Calm,Calm,-,N/A,,Clear,0,2013-07-27 19:35:00
3:55 PM,88.7,75.4,65,29.95,10.0,NW,4.6,-,N/A,,Clear,310,2013-07-27 19:55:00
4:15 PM,89.8,74.1,60,29.94,10.0,Calm,Calm,-,N/A,,Clear,0,2013-07-27 20:15:00
4:35 PM,89.2,73.4,59,29.94,10.0,West,3.5,-,N/A,,Clear,260,2013-07-27 20:35:00
4:55 PM,90.7,72.9,56,29.94,10.0,West,3.5,-,N/A,,Clear,270,2013-07-27 20:55:00
5:15 PM,90.7,72.3,55,29.94,10.0,Calm,Calm,-,N/A,,Clear,0,2013-07-27 21:15:00
5:35 PM,90.5,72.7,56,29.94,10.0,Calm,Calm,-,N/A,,Clear,0,2013-07-27 21:35:00
5:55 PM,89.1,74.3,62,29.94,10.0,Calm,Calm,-,N/A,,Scattered Clouds,0,2013-07-27 21:55:00
6:15 PM,88.3,76.1,67,29.94,10.0,Calm,Calm,-,N/A,,Clear,0,2013-07-27 22:15:00
6:35 PM,87.8,77.2,71,29.94,10.0,Calm,Calm,-,N/A,,Clear,0,2013-07-27 22:35:00
6:55 PM,87.1,78.3,75,29.94,10.0,Calm,Calm,-,N/A,,Clear,0,2013-07-27 22:55:00
7:15 PM,85.1,78.6,81,29.95,10.0,Calm,Calm,-,N/A,,Scattered Clouds,0,2013-07-27 23:15:00
7:35 PM,85.3,78.4,80,29.95,10.0,Calm,Calm,-,N/A,,Mostly Cloudy,0,2013-07-27 23:35:00
7:55 PM,85.1,77.9,79,29.95,10.0,Calm,Calm,-,N/A,,Mostly Cloudy,0,2013-07-27 23:55:00
8:15 PM,84.7,76.8,77,29.96,10.0,NNE,3.5,-,N/A,,Scattered Clouds,20,2013-07-28 00:15:00
8:35 PM,84.0,76.6,78,29.97,10.0,Calm,Calm,-,N/A,,Clear,0,2013-07-28 00:35:00
8:55 PM,83.1,76.8,81,29.97,10.0,Calm,Calm,-,N/A,,Scattered Clouds,0,2013-07-28 00:55:00
9:15 PM,83.1,75.2,77,29.98,10.0,Calm,Calm,-,N/A,,Scattered Clouds,0,2013-07-28 01:15:00
9:35 PM,83.1,74.5,75,29.98,10.0,Calm,Calm,-,N/A,,Clear,0,2013-07-28 01:35:00
9:55 PM,81.1,75.9,84,29.98,10.0,ESE,3.5,-,N/A,,Clear,120,2013-07-28 01:55:00
10:15 PM,81.3,75.7,83,29.99,10.0,Calm,Calm,-,N/A,,Clear,0,2013-07-28 02:15:00
10:35 PM,79.5,77.2,93,29.99,10.0,Calm,Calm,-,N/A,,Clear,0,2013-07-28 02:35:00
10:55 PM,79.3,77.0,93,29.99,10.0,Calm,Calm,-,N/A,,Scattered Clouds,0,2013-07-28 02:55:00
11:15 PM,79.9,76.8,90,29.97,10.0,Calm,Calm,-,N/A,,Mostly Cloudy,0,2013-07-28 03:15:00
11:35 PM,78.8,77.0,94,29.97,10.0,Calm,Calm,-,N/A,,Scattered Clouds,0,2013-07-28 03:35:00
11:55 PM,78.6,77.0,95,29.97,10.0,Calm,Calm,-,N/A,,Clear,0,2013-07-28 03:55:00